Theta_e
340 339 338 336 335 334 334 333 332 333 340 344 347 353 352 349 348 348 349 349 349 349 348 346 344 341 339 340 339 336 342 347 340 342 345 347 349 350 351 352 352 344 346 345
336 336 335 334 334 333 330 331 331 337 346 346 348 349 351 350 348 348 347 348 348 348 347 345 343 342 340 341 341 343 345 348 346 349 349 350 351 352 352 350 351 345 345 345
334 335 334 334 332 330 330 329 330 332 338 346 343 355 352 349 348 347 347 346 347 346 346 346 343 342 341 342 342 343 346 347 348 350 351 351 351 351 352 352 350 345 342 345
334 334 333 331 330 329 329 328 329 332 336 338 339 345 350 352 351 348 346 346 345 346 345 345 346 345 343 343 344 345 346 346 346 345 351 352 352 352 352 352 351 348 338 341
333 330 329 329 329 328 329 331 335 337 337 337 337 340 344 350 353 351 347 345 345 345 345 345 345 345 345 345 345 345 346 347 345 345 345 351 349 351 352 352 352 347 348 337
333 330 330 330 328 328 328 331 334 335 336 336 334 339 341 344 344 351 349 347 345 345 345 344 344 344 344 344 345 344 346 344 339 341 342 343 346 349 349 352 352 352 353 351
330 329 329 327 328 329 329 331 333 334 334 337 337 342 342 345 342 346 348 348 347 346 345 345 345 344 343 343 344 343 344 342 338 339 340 341 342 341 341 342 351 351 351 351
331 333 332 331 332 330 332 332 332 334 334 337 339 339 343 346 343 342 345 344 346 347 346 346 345 345 345 344 343 343 343 341 338 340 341 341 341 341 343 344 339 347 351 350
333 333 332 330 331 331 333 333 331 331 332 333 336 340 346 344 348 346 346 348 346 348 348 348 348 347 346 345 344 343 339 338 336 335 335 334 334 335 340 342 348 347 351 351
333 333 333 332 331 330 332 330 331 331 333 334 336 337 347 347 347 344 343 344 346 346 348 349 346 347 346 346 346 345 344 338 337 336 336 338 338 337 339 340 340 344 351 351
332 333 334 333 333 333 332 332 332 332 332 333 335 337 343 347 344 343 343 346 346 346 349 350 350 349 347 346 346 346 346 346 342 341 340 341 344 346 345 345 343 343 344 349
333 333 334 333 330 330 331 332 333 333 335 332 333 341 340 346 347 347 345 345 349 350 350 351 350 350 349 348 348 347 348 348 348 348 344 342 347 346 351 348 349 346 345 346
333 334 334 332 331 332 332 332 332 332 332 333 335 341 344 344 347 349 346 346 350 351 350 351 351 350 350 349 350 349 348 349 349 349 349 349 350 351 351 352 350 351 345 345
328 333 332 333 333 333 333 331 331 332 333 334 332 335 343 346 348 347 349 347 348 350 350 349 349 350 349 350 349 348 347 349 350 350 350 351 351 352 352 353 353 351 346 344
332 332 333 332 331 331 332 332 332 333 333 333 333 334 334 337 342 344 342 349 348 350 349 349 349 350 350 350 350 347 349 345 351 349 349 352 347 348 345 349 353 352 351 349
332 333 333 332 331 330 330 331 331 331 332 332 331 332 333 337 345 345 343 347 349 350 350 350 349 349 349 349 349 347 347 345 342 342 344 348 347 348 348 353 353 351 351 353
332 332 334 334 333 333 332 332 331 331 331 331 331 332 341 345 346 346 345 349 351 350 348 348 349 350 350 350 351 347 341 341 341 344 344 347 346 344 345 348 348 345 346 350
333 334 334 335 334 335 332 332 331 330 330 332 332 335 342 345 348 349 349 350 348 347 346 346 345 345 345 345 341 338 342 338 341 343 341 339 338 342 341 341 344 346 349 349
331 334 335 334 333 331 330 330 332 331 332 336 336 336 345 346 347 350 348 347 345 343 341 340 341 341 340 338 337 331 329 329 329 329 330 332 334 335 335 340 352 352 348 347
331 332 334 334 332 331 331 332 331 333 335 338 336 341 344 343 344 347 344 342 338 337 337 338 338 338 339 337 329 327 326 325 325 324 324 324 324 325 328 336 342 344 345 346
333 334 334 334 334 331 331 331 335 336 337 337 339 342 343 342 339 338 338 339 337 334 337 337 335 334 333 332 332 332 330 323 323 322 322 322 321 321 322 323 326 337 340 341
335 335 334 334 334 334 331 332 337 335 335 335 339 341 341 338 336 335 336 334 334 336 335 334 332 331 327 325 329 330 325 322 322 322 322 322 321 321 325 324 323 323 326 338
335 335 334 333 333 336 333 332 334 334 336 336 338 339 339 336 335 335 334 333 333 334 334 332 331 332 331 325 323 324 322 322 321 319 318 318 317 319 320 320 319 328 331 332
334 332 335 335 334 332 333 332 332 334 334 335 337 338 338 336 335 334 333 333 334 334 332 331 330 330 331 327 325 325 323 318 318 325 326 326 326 323 325 326 326 325 326 328
332 335 334 334 334 335 335 334 334 334 333 333 335 337 336 335 334 333 333 334 334 333 332 332 331 330 329 326 325 323 320 319 324 326 326 326 325 324 324 325 325 325 325 324
332 334 334 334 332 333 332 334 334 333 333 333 335 335 334 334 333 332 333 334 334 332 332 331 330 328 326 324 323 325 325 325 324 326 326 326 324 324 324 324 324 324 323 321
Wind_Speed
2 9 9 11 11 11 15 13 11 7 5 4 4 9 14 18 15 17 18 21 22 23 22 22 26 28 31 26 26 24 19 16 17 16 16 15 14 13 12 11 10 9 8 8
10 12 8 7 6 12 9 9 6 7 4 6 2 5 10 15 15 17 20 21 22 24 25 24 28 33 31 29 26 22 21 19 20 17 16 14 13 13 11 11 12 13 12 9
10 14 13 13 11 10 8 6 10 9 2 4 5 8 9 11 13 15 17 19 22 26 28 29 31 33 33 32 30 27 25 23 22 19 16 16 16 15 12 12 12 14 15 15
9 7 9 10 11 11 13 7 5 7 8 3 7 6 9 12 15 15 18 21 24 28 30 31 33 35 36 35 31 28 26 27 26 24 19 18 15 14 11 11 10 11 13 15
4 5 8 13 12 6 6 4 5 5 5 5 5 3 8 11 12 15 21 24 27 30 31 33 34 35 34 32 30 29 27 27 27 26 26 20 20 15 13 12 12 13 13 14
16 17 8 12 7 7 2 3 3 3 3 3 4 7 10 5 4 14 20 25 25 25 27 28 29 29 31 30 29 27 26 30 31 30 28 27 23 19 17 15 13 12 12 12
9 9 5 7 10 5 8 13 5 5 5 9 4 4 9 8 8 5 15 20 21 22 23 24 27 29 29 29 29 30 28 30 32 31 30 27 25 24 24 22 17 15 15 13
5 12 4 2 5 8 4 10 5 3 1 10 2 3 6 5 7 9 10 9 10 12 15 18 21 26 28 28 30 32 31 34 32 32 31 29 29 28 25 25 26 20 18 15
3 5 6 4 2 5 4 8 9 5 3 7 6 6 9 9 12 12 12 12 13 8 6 5 11 17 23 27 28 29 34 35 33 34 34 33 32 32 28 26 23 21 21 18
2 5 4 6 4 4 6 4 6 6 3 5 9 4 11 14 13 10 12 12 13 11 10 9 8 7 11 17 21 24 25 28 27 27 27 26 27 29 28 27 28 24 21 22
4 4 3 6 4 9 4 8 3 4 4 6 8 5 12 13 11 11 12 11 12 12 12 12 12 12 12 11 11 14 17 19 23 27 28 26 24 23 24 24 24 23 24 24
2 7 6 9 3 2 2 5 10 8 7 1 9 8 8 6 8 8 9 11 11 11 13 14 16 17 14 12 10 10 9 10 12 16 21 24 23 22 21 22 21 21 23 25
4 4 8 6 10 6 2 3 3 5 7 4 9 7 6 9 7 6 9 10 10 11 12 14 15 16 14 12 10 8 8 4 5 9 12 14 16 16 19 20 20 21 23 24
3 4 6 7 9 5 3 2 4 9 6 4 8 5 9 9 9 7 7 8 10 9 10 12 14 14 11 9 7 6 4 3 3 6 8 12 15 16 16 18 20 21 23 25
6 8 1 2 3 5 8 9 8 9 9 10 10 3 5 2 1 2 5 10 11 10 9 9 11 10 8 6 4 2 1 4 3 5 6 8 11 11 13 16 18 19 20 23
6 7 5 9 6 9 12 13 13 13 14 14 14 16 8 1 1 4 8 15 13 11 10 9 10 9 7 5 5 3 1 3 4 4 5 7 9 10 13 14 15 17 18 20
9 7 7 12 6 10 13 18 18 16 13 10 12 9 6 3 4 7 12 14 12 12 12 11 11 10 9 8 6 5 3 2 2 1 3 3 4 6 10 13 14 17 19 18
9 9 8 10 11 15 12 4 9 12 12 10 13 3 2 6 9 10 12 15 15 13 11 11 11 10 9 8 6 6 6 6 3 2 4 7 9 9 10 11 11 12 14 17
11 10 9 9 12 14 14 12 10 10 11 9 12 8 10 13 15 13 13 14 14 13 11 10 9 8 7 6 6 6 6 6 4 4 6 8 9 10 12 13 12 13 14 14
10 12 10 8 12 12 5 8 9 6 11 11 11 12 15 16 10 9 14 14 12 10 9 8 7 7 7 7 7 6 7 9 11 12 13 13 13 13 12 13 13 13 15 17
9 10 14 12 11 9 7 5 8 12 3 11 14 16 18 9 11 22 17 14 11 10 8 7 7 7 8 6 5 6 7 12 15 17 19 20 19 18 17 18 17 16 17 18
14 9 11 12 14 14 6 8 15 5 5 10 14 17 18 11 15 19 16 14 11 9 7 6 6 6 3 3 4 5 10 15 17 19 20 21 21 21 19 21 20 20 20 18
16 17 11 10 8 4 6 17 17 2 1 11 16 19 21 17 17 17 16 13 10 7 7 5 3 4 3 7 12 12 15 17 18 18 17 17 18 18 17 17 18 18 17 18
17 15 12 10 13 13 10 9 13 12 7 5 12 19 21 17 16 16 15 12 10 7 6 4 2 1 4 9 13 14 16 17 14 11 11 10 12 17 14 14 13 14 15 17
8 11 15 14 16 4 12 13 12 13 13 9 13 21 21 16 16 15 13 11 9 7 5 3 2 2 5 11 12 12 14 14 13 12 12 12 12 13 14 14 14 15 15 16
14 11 10 11 17 17 15 8 11 10 12 12 17 19 18 17 17 15 12 10 9 7 5 3 1 4 7 11 10 11 11 12 12 12 11 13 14 14 14 14 14 15 20 21
Wind_Direction
195 283 279 350 342 329 312 310 319 30 119 242 197 154 175 177 174 164 174 178 180 186 182 186 186 186 191 196 199 209 205 209 208 208 211 217 225 231 234 238 244 245 253 254
247 253 20 348 306 304 313 303 356 106 114 199 164 143 166 183 188 179 175 185 182 185 185 188 188 192 196 199 208 212 217 217 212 217 218 220 228 234 236 238 239 245 248 257
272 295 310 308 310 316 279 315 347 342 316 205 230 131 159 196 202 190 189 188 191 191 192 193 194 197 202 208 212 216 219 217 221 216 223 226 229 232 239 243 245 249 253 254
277 303 304 303 302 297 296 13 315 306 297 21 341 112 136 169 194 196 196 195 198 201 203 202 204 206 210 215 218 221 221 223 225 225 219 222 226 236 244 244 249 250 262 260
116 300 298 285 298 300 9 10 328 309 267 255 108 262 102 151 180 195 202 201 206 206 207 209 211 214 216 216 218 220 220 222 220 224 223 228 235 239 249 249 247 267 259 266
266 285 280 281 288 275 269 241 244 228 259 186 53 289 97 95 125 179 195 208 210 210 212 215 217 219 220 220 219 219 219 221 223 226 231 232 235 242 243 248 247 255 253 251
217 209 203 233 247 212 233 253 234 205 195 55 79 234 55 84 106 110 174 199 209 214 216 218 220 220 220 217 218 218 218 223 223 225 230 234 241 250 258 259 254 252 249 246
262 153 175 101 299 332 321 321 317 277 343 109 163 119 86 76 106 125 119 141 175 199 214 222 226 224 222 217 214 216 217 227 224 225 231 237 243 247 252 256 258 247 241 242
222 134 126 52 349 296 118 241 18 292 182 262 95 113 131 128 120 117 117 118 106 105 137 195 219 218 218 216 216 216 219 230 233 238 241 243 247 251 247 251 252 248 239 234
90 273 122 114 233 105 301 359 237 204 269 288 133 214 113 140 130 128 104 101 95 91 83 81 96 162 187 202 210 213 221 227 236 237 244 248 250 255 257 255 255 247 238 243
282 266 132 238 26 340 243 218 222 317 311 304 240 144 116 146 136 120 120 115 96 88 84 86 95 110 124 146 176 195 209 221 237 243 243 245 248 250 256 254 252 249 245 240
56 307 287 357 86 343 318 315 272 280 166 304 311 92 129 131 133 122 118 113 101 96 94 95 101 105 111 120 135 159 182 206 225 229 241 241 249 245 243 250 244 245 243 243
166 247 290 171 173 179 251 47 302 274 281 233 296 101 121 147 149 119 130 124 114 106 107 106 104 101 105 109 118 138 154 182 208 229 227 232 233 242 243 238 243 236 241 242
227 274 297 322 1 5 218 235 312 290 271 242 241 41 143 168 162 145 145 142 125 119 115 110 104 102 104 109 117 139 172 221 243 207 224 225 231 237 242 241 240 238 237 240
266 267 270 313 283 280 300 288 274 272 296 291 293 238 282 181 97 126 181 167 149 136 115 106 103 102 106 115 125 152 233 273 232 242 242 247 241 241 245 243 243 247 242 246
218 259 242 267 237 255 272 273 266 265 269 273 268 268 280 75 219 162 187 174 160 137 118 104 97 94 89 83 87 91 69 257 256 266 262 255 266 262 257 255 254 251 259 255
236 238 238 267 284 283 267 254 254 257 256 252 257 263 121 152 142 127 146 154 140 129 120 111 97 85 77 72 80 68 37 1 346 335 326 332 306 278 268 267 265 266 267 263
221 241 260 272 279 257 273 334 288 278 266 242 258 244 187 121 122 128 134 134 129 123 115 103 96 86 75 71 57 45 38 29 25 350 313 308 309 307 300 295 288 282 270 266
235 243 255 253 246 257 270 256 227 213 236 220 241 196 163 145 128 111 126 128 124 118 111 98 90 84 71 57 35 29 29 22 19 356 343 335 329 321 301 292 300 296 289 274
233 236 242 208 257 261 297 346 201 226 256 184 201 174 167 166 186 133 148 138 124 117 108 101 90 80 73 70 57 26 4 353 343 335 330 325 320 315 312 302 295 285 276 275
189 207 216 224 251 261 255 247 181 215 115 156 179 172 168 180 63 138 145 141 132 119 109 105 99 95 88 76 53 32 354 332 326 322 317 314 310 305 300 294 294 293 286 278
202 213 218 242 253 251 194 187 202 244 135 160 180 176 168 132 131 141 143 141 135 126 116 114 111 101 80 10 10 359 326 322 318 315 311 308 306 304 296 292 289 283 281 284
237 231 241 213 222 161 218 223 208 350 161 191 184 181 173 156 151 152 149 146 143 138 130 129 118 88 48 333 327 326 320 322 322 320 316 315 314 314 310 302 295 292 290 287
207 241 250 228 237 234 225 244 244 244 246 227 210 188 179 170 161 157 155 154 148 143 140 136 135 32 350 338 332 329 324 329 333 325 324 323 326 319 323 311 303 292 286 282
244 174 228 241 243 254 242 253 256 246 238 235 202 187 183 177 167 163 161 156 150 144 135 132 117 346 339 329 331 329 328 330 329 322 318 318 317 323 326 322 313 305 295 282
229 243 228 236 247 230 255 260 244 228 206 185 171 169 174 172 166 164 161 159 156 153 150 150 4 348 339 337 344 338 335 333 334 329 327 318 319 321 323 325 323 317 315 313